Location: *
(48.8489°N, 2.3218°E)
Time: 16:13:30
(UTC+00:00)

Meteor 1-21 - Pass Details

Date: 23 August 2019
Orbit: 843 x 889 km, 81.2° (Epoch: 16 September)

Event Time Altitude Azimuth Distance (km) Brightness Sun altitude
Rises 22:14:15 0° 345° (NNW) 3,440 8.6 -26.0°
Reaches altitude 10° 22:16:42 10° 343° (NNW) 2,494 7.6 -26.2°
Maximum altitude 22:22:16 64° 263° (W) 939 4.4 -26.6°
Enters shadow 22:22:57 59° 227° (SW) 979 4.3 -26.6°
